User: anonymous   Login
Location: Boca do Mato
(22.9085°S, 43.2930°W)
Time: 12:46:58
(UTC+00:00)
Language:

Cosmos 2219 - Orbit

View from above orbital plane
View from above orbital plane
View from above satellite
View from above satellite

Ground track
Ground track

The orbit data is extracted from the following two-line orbital elements,

1 22219U 92076A   20263.18667484 -.00000086  00000-0 -20840-4 0  9991
2 22219  71.0570 231.9024 0017689   4.7254 355.4032 14.13638983436384
Epoch (UTC): 19 September 2020 04:28:48
Eccentricity: 0.0017689
inclination: 71.0570°
perigee height: 834 km
apogee height: 860 km
right ascension of ascending node: 231.9024°
argument of perigee: 4.7254°
revolutions per day: 14.13638983
mean anomaly at epoch: 355.4032°
orbit number at epoch: 43638

The dashed part of the orbit path shows where the satellite is in the earth's shadow,  

DLR